Location: Pacheco
(37.9835°N, 122.0752°W)
Time: 10:41:32
(UTC+00:00)

SL-16 R/B - Pass Details

Date: 13 April 2024
Orbit: 839 x 849 km, 71.0° (Epoch: 23 May)

Event Time Altitude Azimuth Distance (km) Brightness Sun altitude
Exits shadow 12:40:40 - 213° (SSW) 2,623 4.3 -11.0°
Reaches altitude 10° 12:41:08 10° 214° (SW) 2,447 4.1 -11.0°
Maximum altitude 12:46:41 61° 295° (WNW) 951 2.3 -9.9°
Drops below altitude 10° 12:52:17 10° 15° (NNE) 2,466 5.1 -8.9°
Sets 12:54:46 0° 19° (NNE) 3,406 6.0 -8.4°
